Location: Colonia Mina de C?rbuni
(46.1667°N, 22.7167°E)
Time: 02:26:09
(UTC+00:00)

deb Explorer IX - Pass Details

Date: 19 April 2024
Orbit: 513 x 891 km, 38.7° (Epoch: 21 May)

Event Time Altitude Azimuth Distance (km) Brightness Sun altitude
Rises 11:19:03 0° 247° (WSW) 3,473 ? 53.6°
Reaches altitude 10° 11:21:44 10° 240° (WSW) 2,562 ? 53.5°
Maximum altitude 11:27:29 41° 173° (S) 1,294 ? 53.1°
Drops below altitude 10° 11:33:13 10° 105° (ESE) 2,560 ? 52.6°
Sets 11:35:53 0° 98° (E) 3,471 ? 52.4°
